Tracking 19279 objects as of 14-Nov-2018
HD Live streaming from Space Station
objects crossing your sky now

RUBIN 9.1/RUBIN 9.2/PSLV

Track RUBIN 9.1/RUBIN 9.2/PSLV now!
10-day predictions
RUBIN 9.1/RUBIN 9.2/PSLV is classified as:


NORAD ID: 35936
Int'l Code: 2009-051F
Perigee: 720.6 km
Apogee: 798.7 km
Inclination: 98.0 °
Period: 99.9 minutes
Semi major axis: 7130 km
RCS: 5.72 m2 (large)
Launch date: September 23, 2009
Source: Germany (GER)
Launch site: SRIHARIKOTA (SRI)

RUBIN 9.1 & RUBIN 9.2 are demonstration payloads for the Automatic Identification System, a communications network used to track and identify shipping vessels."
aabbcc
Your satellite tracking list
Your tracking list is empty




NASA's NSSDC Master Catalog

Two Line Element Set (TLE):
1 35936U 09051F   18317.98647822  .00000013  00000-0  16019-4 0  9992
2 35936  98.0281 308.9295 0054736 184.3072 175.7661 14.41808194480951
Source of the keplerian elements: AFSPC